Temperature
-1 -1 -1 -1 -0 -1 -1 -0 -0 0 -0 1 0 -1 -1 -0 -0 -1 -1 -1 -1 -1 -1 -2 -2 -2 -2 -2 -2 -2 -2 -2 -2 -2 -2 -2 -2 -2 -2 -2 -2 -2 -2 -2
-2 -1 -2 -1 -1 -1 -1 -1 -1 -0 -0 -0 -0 -1 -1 -1 -1 -1 -1 -1 -1 -2 -2 -2 -2 -2 -2 -2 -2 -3 -3 -3 -3 -3 -3 -3 -3 -3 -3 -3 -3 -2 -2 -2
-1 -2 -1 -1 -1 -2 -2 -2 -2 -0 0 -1 -2 -2 -1 -1 -1 -1 -1 -2 -2 -2 -2 -2 -3 -3 -3 -3 -3 -3 -3 -3 -3 -3 -3 -3 -3 -3 -3 -3 -3 -3 -3 -3
-3 -2 -0 1 -2 -2 -2 -2 -3 -2 -2 -2 -2 -2 -1 -1 -1 -1 -1 -2 -2 -2 -2 -3 -3 -3 -3 -3 -3 -3 -3 -3 -3 -3 -3 -3 -4 -4 -4 -3 -3 -3 -3 -3
-3 -2 -2 -1 -2 -3 -3 -2 -3 -3 -3 -3 -3 -3 -2 -1 -1 -1 -2 -2 -2 -2 -3 -3 -3 -3 -3 -4 -4 -4 -4 -4 -4 -4 -4 -4 -4 -4 -4 -4 -4 -4 -4 -3
-4 -2 -1 0 -2 -3 -2 -2 -2 -3 -3 -3 -4 -3 -2 -1 -2 -2 -2 -3 -3 -3 -3 -3 -3 -4 -4 -4 -4 -4 -4 -4 -4 -4 -4 -4 -4 -4 -4 -4 -4 -4 -4 -4
-4 -3 -2 -2 -3 -3 -1 -1 -2 -3 -3 -4 -4 -3 -2 -2 -2 -3 -3 -3 -3 -3 -3 -4 -4 -4 -4 -4 -4 -4 -4 -4 -4 -4 -5 -5 -5 -5 -5 -5 -5 -4 -4 -4
-4 -3 -1 -3 -4 -3 -2 -2 -2 -2 -2 -3 -3 -3 -3 -3 -3 -3 -3 -4 -4 -4 -4 -4 -4 -4 -4 -4 -5 -5 -5 -5 -5 -5 -5 -5 -5 -5 -5 -5 -5 -5 -5 -4
-4 -2 -2 -3 -2 -2 -2 -2 -2 -2 -2 -2 -3 -3 -3 -3 -4 -4 -4 -4 -4 -4 -4 -4 -5 -5 -5 -5 -5 -5 -5 -5 -5 -5 -5 -5 -5 -5 -5 -5 -5 -5 -5 -5
-5 -4 -3 -2 -2 -2 -2 -2 -2 -2 -2 -3 -3 -3 -4 -4 -4 -4 -4 -4 -5 -5 -5 -5 -5 -5 -5 -5 -5 -5 -5 -5 -6 -6 -6 -6 -6 -6 -6 -5 -6 -6 -6 -5
-6 -5 -4 -2 -2 -1 -2 -2 -2 -3 -3 -3 -3 -4 -4 -4 -4 -4 -5 -5 -5 -5 -5 -5 -5 -5 -5 -5 -5 -6 -6 -6 -6 -6 -6 -6 -6 -6 -6 -6 -6 -6 -6 -6
-3 -3 -4 -2 -1 -2 -2 -3 -3 -3 -3 -3 -4 -4 -4 -4 -4 -5 -5 -5 -5 -5 -5 -5 -6 -6 -6 -6 -6 -6 -6 -6 -6 -6 -6 -6 -6 -6 -6 -6 -6 -6 -6 -6
-2 -2 -2 -2 -2 -2 -2 -3 -3 -3 -3 -4 -4 -4 -4 -5 -5 -5 -5 -5 -5 -5 -6 -6 -6 -6 -6 -6 -6 -6 -6 -6 -6 -6 -6 -6 -6 -6 -6 -6 -6 -6 -6 -6
-2 -2 -3 -2 -2 -3 -3 -3 -3 -4 -4 -4 -4 -5 -5 -5 -5 -5 -5 -6 -6 -6 -6 -6 -6 -6 -6 -6 -6 -6 -7 -7 -7 -7 -7 -7 -7 -7 -7 -6 -6 -6 -6 -6
-2 -3 -3 -3 -3 -3 -3 -4 -4 -4 -4 -4 -5 -5 -5 -5 -5 -6 -6 -6 -6 -6 -6 -6 -7 -7 -7 -7 -7 -7 -7 -7 -7 -7 -7 -7 -7 -7 -7 -7 -7 -7 -7 -7
-3 -3 -3 -4 -4 -4 -4 -4 -4 -4 -5 -5 -5 -5 -5 -6 -6 -6 -6 -6 -6 -7 -7 -7 -7 -7 -7 -7 -7 -7 -7 -7 -7 -7 -7 -7 -7 -7 -7 -7 -7 -7 -7 -7
-4 -4 -4 -4 -4 -4 -4 -4 -5 -5 -5 -5 -5 -6 -6 -6 -6 -6 -6 -7 -7 -7 -7 -7 -7 -8 -8 -8 -8 -8 -8 -8 -8 -8 -7 -7 -7 -7 -7 -7 -7 -7 -7 -7
-4 -4 -4 -4 -4 -4 -4 -5 -5 -5 -5 -5 -6 -6 -6 -6 -6 -6 -7 -7 -7 -7 -7 -7 -8 -8 -8 -8 -8 -8 -8 -8 -8 -8 -8 -7 -7 -7 -7 -7 -7 -7 -7 -7
-4 -4 -4 -4 -4 -4 -5 -5 -5 -5 -5 -6 -6 -6 -6 -6 -7 -7 -7 -7 -7 -7 -7 -7 -8 -8 -8 -8 -8 -8 -8 -8 -8 -8 -8 -8 -8 -8 -8 -7 -8 -8 -8 -7
-4 -4 -4 -4 -5 -5 -5 -5 -5 -5 -5 -6 -6 -6 -6 -7 -7 -7 -7 -7 -7 -8 -8 -8 -8 -8 -8 -8 -8 -8 -8 -8 -8 -8 -8 -8 -8 -8 -8 -8 -8 -8 -8 -8
-4 -4 -4 -5 -5 -5 -5 -5 -5 -5 -6 -6 -6 -6 -7 -7 -7 -7 -7 -7 -7 -8 -8 -8 -8 -8 -8 -8 -8 -8 -8 -8 -8 -8 -8 -8 -8 -8 -8 -8 -8 -8 -8 -8
-5 -5 -5 -5 -5 -5 -5 -5 -5 -6 -6 -6 -6 -6 -7 -7 -7 -7 -7 -8 -8 -8 -8 -8 -8 -8 -8 -8 -8 -8 -8 -8 -8 -8 -8 -8 -8 -8 -8 -8 -8 -8 -8 -8
-5 -5 -5 -5 -5 -5 -6 -6 -6 -6 -6 -6 -6 -7 -7 -7 -7 -7 -7 -8 -8 -8 -8 -8 -8 -8 -8 -8 -8 -8 -8 -8 -8 -8 -8 -8 -8 -8 -8 -8 -8 -8 -8 -8
-5 -5 -6 -6 -6 -6 -6 -6 -6 -6 -6 -6 -7 -7 -7 -7 -7 -7 -8 -8 -8 -8 -8 -8 -8 -8 -8 -8 -8 -8 -8 -8 -8 -8 -8 -8 -8 -8 -8 -8 -8 -8 -8 -8
-6 -6 -6 -6 -6 -6 -6 -6 -6 -6 -6 -7 -7 -7 -7 -7 -7 -7 -8 -8 -8 -8 -8 -8 -8 -8 -8 -8 -8 -8 -8 -8 -8 -8 -8 -8 -8 -8 -8 -8 -8 -8 -8 -8
-6 -6 -6 -6 -6 -6 -6 -7 -7 -7 -7 -7 -7 -7 -7 -7 -7 -8 -8 -8 -8 -8 -8 -8 -8 -8 -8 -8 -8 -8 -8 -8 -8 -8 -8 -8 -8 -8 -8 -8 -8 -8 -8 -8
-6 -6 -6 -6 -6 -7 -7 -7 -7 -7 -7 -7 -7 -7 -7 -7 -8 -8 -8 -8 -8 -8 -8 -8 -8 -8 -8 -8 -9 -9 -9 -9 -9 -9 -8 -8 -8 -8 -8 -8 -8 -8 -8 -8
Wind_Speed
5 5 3 5 6 6 8 8 8 8 9 11 7 6 6 5 4 3 3 3 3 3 3 2 3 3 3 3 3 3 3 3 4 4 4 4 3 3 3 3 3 3 3 3
3 3 3 6 7 8 9 7 9 10 12 9 5 3 4 5 4 5 5 5 4 3 3 3 3 4 3 3 4 3 3 3 4 4 4 4 4 3 3 3 3 3 3 3
4 4 4 7 8 8 6 6 7 10 11 6 6 6 5 6 6 6 5 4 4 4 4 4 4 3 3 4 3 3 3 3 3 3 3 4 4 3 3 3 3 3 4 4
1 2 5 6 1 5 6 7 8 7 7 6 7 7 6 5 5 5 5 5 4 4 4 3 3 3 3 3 3 3 3 3 3 3 3 4 4 4 3 3 3 3 4 4
2 3 8 7 2 2 4 7 5 8 9 7 5 5 5 3 3 5 4 4 4 3 3 3 2 2 2 3 3 3 4 4 4 3 3 3 4 4 4 3 3 4 4 4
3 3 6 5 2 1 1 5 3 4 7 4 3 4 6 4 4 3 3 2 3 3 2 2 2 1 2 3 3 4 4 4 4 3 3 4 4 4 3 3 4 4 4 3
4 5 8 5 1 2 2 5 4 3 4 2 3 5 5 5 4 3 3 3 2 2 2 3 2 1 2 3 4 5 5 4 4 4 4 4 3 3 3 3 3 3 4 4
5 5 8 2 3 4 5 3 3 3 3 3 5 5 5 5 4 4 4 3 3 2 3 3 2 2 3 4 5 4 4 4 4 4 3 3 3 3 3 3 3 3 3 4
7 7 4 3 4 4 3 4 4 3 4 3 4 5 5 4 4 4 3 3 3 2 4 4 3 2 4 5 4 4 4 4 4 4 3 3 3 3 2 2 2 3 3 3
5 7 6 6 5 4 4 4 5 4 3 2 4 5 4 4 4 4 3 3 3 3 4 4 4 4 4 4 4 4 4 4 4 3 3 3 3 3 3 3 3 3 3 3
5 6 6 5 6 6 4 4 4 4 3 3 3 4 4 4 4 4 3 3 2 3 4 5 5 5 4 3 3 4 4 4 4 3 3 3 3 3 3 4 4 3 3 3
7 6 5 6 4 3 4 5 4 3 3 3 2 3 3 4 3 3 4 3 3 4 4 5 5 5 4 3 3 3 4 3 3 3 3 3 3 3 4 4 5 5 4 4
5 3 4 5 4 2 3 5 4 4 4 3 3 2 3 3 3 3 3 3 4 4 4 4 4 5 5 4 3 3 4 4 3 3 3 3 3 3 3 4 4 4 4 5
4 2 3 4 4 3 3 3 3 2 2 2 2 2 2 2 3 3 3 4 4 4 4 4 4 5 5 4 3 4 4 4 3 3 3 3 3 3 2 2 3 3 4 5
5 5 6 4 3 2 2 1 1 2 2 2 1 1 1 2 3 4 4 3 3 3 4 3 4 5 4 4 4 4 3 3 3 3 2 2 2 2 2 2 2 2 3 3
4 4 3 3 4 3 2 1 2 3 3 2 2 2 2 2 2 3 3 2 3 4 4 4 5 5 4 3 4 3 3 5 3 2 2 2 2 2 2 2 2 2 2 2
3 4 4 4 4 4 4 4 4 4 3 3 3 2 1 1 2 3 3 3 3 4 4 4 5 4 4 3 3 3 3 3 4 3 2 2 2 2 2 2 2 2 2 3
7 7 6 6 5 5 5 4 4 4 3 3 2 1 1 1 2 3 4 4 3 4 4 4 4 4 3 3 3 3 3 3 2 2 2 2 2 2 2 2 2 2 2 2
5 5 5 5 5 5 4 4 3 3 2 2 2 2 2 2 2 3 3 3 3 4 5 5 6 4 3 4 4 2 3 3 3 2 2 3 2 2 2 2 2 2 2 2
3 3 3 3 2 3 3 3 2 2 2 2 2 1 2 2 2 2 2 3 3 4 4 5 4 3 3 4 4 2 2 3 3 3 2 2 2 2 2 2 2 2 2 2
3 2 2 1 2 2 2 2 2 2 2 2 2 2 2 2 2 2 2 3 4 4 4 5 4 3 3 3 3 2 2 2 3 3 2 2 2 2 2 2 2 2 2 2
2 2 2 1 1 1 1 1 2 2 2 2 1 1 1 2 2 2 3 3 4 5 4 3 3 5 5 4 2 2 2 3 3 2 2 2 2 2 3 3 2 2 2 2
2 2 2 2 2 1 1 1 1 2 2 2 2 2 2 2 2 2 3 3 3 5 4 3 6 7 6 3 2 2 3 3 3 3 3 3 2 2 3 3 2 2 2 2
2 1 1 1 1 1 1 1 1 1 1 2 2 2 2 1 2 2 2 4 5 5 3 5 7 6 5 2 2 2 3 3 3 3 3 2 2 2 2 2 2 2 2 2
1 1 1 1 1 1 2 1 0 0 0 1 2 2 1 1 2 2 2 3 4 5 3 5 7 6 4 2 2 3 3 3 3 2 2 2 2 2 2 2 2 2 2 2
1 1 2 2 2 2 1 1 1 1 1 1 2 2 1 1 1 1 2 2 3 4 3 3 4 4 3 3 3 3 3 3 3 3 2 2 2 2 2 2 2 2 2 2
0 1 1 0 1 1 2 2 2 2 2 2 2 2 1 1 1 2 2 2 2 2 3 3 3 3 3 3 3 3 3 3 3 3 3 2 2 2 2 2 2 2 2 2
Wind_Direction
257 270 244 238 235 213 211 213 221 248 256 272 280 279 282 280 279 269 263 258 256 269 284 295 300 295 292 297 305 306 303 302 298 302 304 302 299 300 302 307 308 306 307 308
287 291 266 267 250 230 232 234 244 267 276 272 287 292 288 283 273 266 261 259 270 278 287 289 289 291 296 297 302 305 298 296 303 306 311 310 306 305 308 311 311 313 309 308
267 311 332 273 235 212 225 225 217 243 259 293 303 293 281 273 268 262 264 271 271 273 269 274 281 281 282 293 303 307 303 303 308 308 311 309 311 313 307 304 311 312 306 301
256 13 259 254 215 204 228 251 234 251 283 293 287 294 285 266 259 263 276 276 275 275 278 279 280 285 294 303 305 302 304 307 307 311 309 312 312 307 304 302 302 299 301 300
148 252 277 289 260 179 218 278 235 249 278 299 323 323 299 273 272 268 267 274 279 279 279 286 278 278 294 302 301 295 298 301 300 297 300 305 303 302 303 303 302 299 297 297
151 213 250 261 258 203 120 290 278 249 272 294 352 315 296 320 312 298 299 302 301 308 308 295 289 277 280 286 289 287 291 294 294 288 285 283 283 289 296 298 298 303 304 301
190 231 262 261 235 124 171 270 313 273 269 246 243 258 294 318 322 320 318 313 317 320 308 291 286 281 283 286 281 287 293 294 294 290 284 279 283 284 289 299 306 308 306 303
169 217 255 228 129 186 236 298 302 288 274 254 268 293 303 310 313 320 324 321 325 323 312 306 294 283 285 284 288 295 296 296 294 290 286 288 286 289 293 296 300 299 303 310
197 220 263 202 217 250 271 282 281 278 278 268 277 289 299 303 302 306 306 312 321 314 312 313 303 287 282 291 301 303 301 297 296 295 291 285 276 282 289 285 284 290 292 297
249 264 259 247 255 267 262 265 280 278 276 258 270 283 292 295 300 305 307 309 315 317 312 309 306 296 279 290 302 297 293 293 295 296 296 295 288 282 275 271 273 279 288 291
251 274 294 268 240 256 273 287 296 297 280 264 266 282 281 288 294 298 305 310 308 298 296 298 305 299 296 296 302 298 290 289 293 289 285 290 291 277 276 265 264 270 268 272
229 234 230 264 272 260 256 266 270 281 293 288 253 262 275 278 285 293 297 304 305 299 297 300 305 304 305 302 294 289 292 293 289 286 289 290 296 305 300 293 296 295 292 297
232 248 237 267 283 255 249 262 269 264 263 276 280 263 269 282 291 296 298 299 296 295 298 303 306 305 306 306 300 288 284 289 288 287 288 290 293 297 310 319 314 312 309 311
249 253 264 255 263 276 274 277 278 285 280 271 276 289 287 295 303 299 296 296 298 300 302 305 307 306 308 309 305 297 291 289 288 283 284 282 283 287 285 290 309 315 314 315
244 228 240 268 285 301 304 310 313 297 299 302 294 282 277 283 288 294 304 314 317 311 306 308 308 307 316 317 312 303 294 285 285 286 284 280 282 287 289 287 290 305 321 322
266 264 253 254 261 275 286 269 261 271 276 275 278 278 277 281 292 303 314 321 318 309 309 311 305 307 318 320 315 309 301 295 299 295 293 289 285 285 290 294 297 298 301 304
235 254 248 254 255 258 248 243 241 249 256 258 263 273 290 313 319 319 320 318 307 299 299 301 303 312 321 319 313 309 309 306 308 307 298 295 292 287 287 287 287 290 289 296
228 235 235 238 241 247 255 251 245 245 245 252 256 246 245 258 278 295 308 318 320 317 308 303 306 315 320 318 313 310 309 305 305 305 304 300 303 300 294 292 290 291 299 301
248 245 245 241 235 230 234 241 246 248 250 231 222 234 246 254 266 285 305 314 313 313 314 313 321 330 317 311 318 308 313 312 310 309 304 303 310 305 296 290 292 295 299 301
262 255 251 251 239 219 228 241 243 245 239 215 213 232 262 277 282 291 301 291 279 284 299 312 322 316 309 307 316 312 311 308 309 310 307 299 298 295 292 291 292 291 293 295
267 263 254 246 259 252 229 222 218 231 240 220 214 231 253 276 283 282 287 296 299 303 311 320 329 319 311 311 314 315 312 311 307 304 302 299 296 294 291 290 293 293 293 296
259 248 251 246 241 274 272 237 214 215 223 235 236 232 252 279 291 292 270 263 291 313 326 317 315 313 323 325 323 310 306 306 304 300 296 293 290 290 291 288 283 287 291 292
259 239 239 237 231 257 293 259 211 203 214 225 228 233 245 258 262 270 293 296 305 314 325 308 311 314 325 334 324 314 309 305 302 297 293 289 285 283 283 284 283 282 282 281
253 243 242 233 170 165 254 282 281 246 236 246 240 235 238 271 289 267 272 299 314 322 322 314 323 328 336 345 326 317 311 306 304 301 300 299 295 290 287 288 291 293 290 290
240 221 194 171 187 218 229 235 324 306 302 294 289 278 259 237 248 282 303 305 313 327 326 323 331 339 347 335 325 316 310 305 306 308 298 298 298 299 302 302 300 301 302 299
213 226 231 230 228 220 206 196 218 240 241 287 302 297 303 304 288 291 300 305 310 325 328 322 326 333 335 330 323 320 317 319 325 325 321 317 313 312 312 316 313 308 305 305
240 228 229 263 244 209 199 202 215 234 229 231 266 273 286 302 304 303 305 313 319 323 322 324 327 326 325 325 324 324 322 322 322 324 325 325 323 317 314 312 313 313 315 313
Height
1510 1508 1508 1507 1506 1508 1508 1505 1505 1497 1494 1485 1483 1482 1481 1480 1479 1478 1478 1478 1477 1477 1476 1475 1475 1474 1473 1472 1471 1470 1469 1467 1466 1465 1464 1464 1463 1462 1461 1460 1459 1458 1457 1457
1510 1507 1508 1506 1503 1503 1502 1500 1498 1494 1489 1481 1481 1480 1479 1478 1476 1476 1475 1475 1475 1474 1473 1473 1472 1471 1470 1469 1468 1467 1466 1465 1464 1463 1462 1461 1460 1459 1458 1457 1456 1455 1455 1454
1510 1511 1505 1501 1496 1497 1496 1494 1493 1490 1483 1479 1479 1477 1476 1475 1474 1473 1472 1472 1472 1471 1471 1470 1469 1469 1467 1466 1465 1464 1463 1462 1461 1460 1459 1458 1457 1456 1455 1454 1454 1453 1452 1452
1514 1511 1506 1490 1489 1489 1489 1487 1487 1483 1480 1478 1477 1475 1474 1473 1472 1470 1470 1470 1469 1469 1468 1467 1467 1466 1465 1464 1463 1462 1460 1459 1458 1457 1456 1455 1454 1454 1453 1452 1451 1451 1450 1449
1516 1513 1502 1490 1488 1488 1489 1484 1481 1480 1477 1476 1475 1473 1471 1470 1470 1469 1468 1468 1467 1466 1466 1465 1464 1463 1462 1461 1460 1459 1458 1457 1456 1455 1454 1453 1452 1451 1450 1450 1449 1448 1448 1447
1515 1509 1501 1486 1485 1484 1486 1483 1476 1476 1475 1475 1474 1475 1470 1468 1467 1466 1466 1465 1464 1464 1463 1462 1462 1461 1460 1458 1457 1456 1455 1454 1453 1452 1451 1450 1450 1449 1448 1447 1446 1446 1445 1445
1511 1509 1496 1486 1484 1485 1487 1481 1475 1473 1473 1473 1473 1472 1469 1466 1465 1464 1463 1463 1462 1462 1461 1460 1459 1458 1457 1456 1455 1454 1453 1452 1451 1450 1449 1448 1447 1447 1446 1445 1444 1443 1443 1442
1508 1506 1493 1483 1483 1484 1480 1476 1474 1472 1472 1471 1470 1468 1466 1465 1463 1462 1461 1461 1460 1459 1458 1457 1456 1455 1454 1453 1452 1451 1450 1449 1448 1447 1446 1445 1445 1444 1443 1442 1441 1441 1440 1440
1494 1488 1481 1479 1478 1477 1476 1474 1473 1471 1470 1469 1467 1466 1464 1463 1462 1461 1460 1459 1458 1457 1456 1455 1454 1453 1452 1450 1449 1448 1447 1446 1445 1444 1444 1443 1442 1441 1440 1440 1439 1438 1438 1437
1489 1481 1477 1476 1475 1474 1474 1472 1471 1470 1468 1467 1465 1464 1462 1461 1460 1459 1458 1457 1456 1455 1454 1453 1452 1451 1449 1448 1446 1445 1444 1443 1442 1441 1440 1440 1439 1438 1437 1437 1436 1436 1435 1435
1484 1478 1474 1472 1472 1471 1470 1469 1468 1467 1466 1464 1463 1462 1461 1459 1458 1457 1456 1455 1454 1453 1452 1450 1449 1448 1446 1445 1444 1442 1441 1440 1439 1439 1438 1437 1436 1436 1435 1434 1434 1434 1433 1433
1476 1472 1472 1469 1468 1468 1467 1466 1465 1464 1462 1461 1461 1459 1458 1457 1456 1455 1454 1453 1452 1451 1449 1448 1447 1445 1444 1442 1441 1440 1439 1438 1437 1436 1435 1434 1433 1433 1432 1432 1432 1432 1431 1431
1468 1467 1467 1466 1465 1465 1464 1462 1462 1461 1460 1459 1458 1457 1456 1455 1454 1453 1452 1451 1450 1448 1447 1446 1444 1443 1441 1440 1439 1437 1436 1435 1434 1434 1433 1432 1431 1430 1430 1430 1430 1429 1429 1428
1466 1465 1464 1463 1462 1462 1461 1459 1459 1458 1457 1456 1456 1455 1454 1453 1452 1451 1450 1449 1448 1447 1445 1444 1442 1440 1439 1438 1436 1435 1434 1433 1432 1431 1431 1430 1429 1429 1428 1427 1427 1426 1427 1426
1462 1462 1461 1459 1459 1458 1457 1456 1456 1455 1454 1454 1453 1452 1452 1451 1450 1449 1448 1447 1446 1445 1443 1442 1440 1438 1437 1436 1435 1433 1432 1431 1430 1429 1428 1428 1427 1427 1426 1426 1425 1425 1424 1424
1458 1458 1457 1456 1455 1455 1454 1453 1453 1452 1452 1451 1450 1450 1450 1449 1449 1448 1447 1445 1444 1443 1441 1440 1438 1437 1435 1434 1433 1431 1430 1429 1428 1427 1426 1426 1425 1425 1424 1424 1423 1423 1423 1422
1454 1453 1452 1452 1451 1451 1451 1450 1450 1449 1449 1449 1448 1448 1448 1447 1447 1446 1445 1444 1443 1442 1440 1439 1437 1435 1434 1432 1431 1430 1429 1428 1427 1426 1425 1424 1424 1423 1422 1422 1422 1421 1421 1421
1450 1450 1449 1448 1448 1447 1447 1447 1447 1447 1447 1447 1446 1446 1446 1445 1444 1444 1443 1442 1441 1440 1439 1437 1436 1434 1432 1431 1430 1428 1427 1426 1425 1424 1423 1423 1422 1421 1421 1420 1420 1420 1419 1419
1447 1446 1446 1445 1445 1445 1444 1444 1445 1445 1445 1444 1444 1444 1444 1443 1443 1442 1441 1440 1439 1438 1437 1436 1434 1432 1431 1430 1428 1427 1426 1425 1424 1423 1422 1421 1420 1420 1419 1419 1418 1418 1418 1417
1444 1443 1443 1442 1442 1442 1442 1442 1442 1442 1442 1442 1442 1442 1442 1441 1441 1440 1440 1439 1438 1437 1435 1434 1432 1431 1429 1428 1427 1426 1425 1424 1422 1421 1421 1420 1419 1418 1418 1417 1417 1416 1416 1416
1441 1441 1440 1440 1440 1440 1440 1440 1440 1440 1441 1441 1440 1440 1440 1440 1439 1439 1438 1437 1437 1435 1434 1433 1431 1430 1428 1427 1426 1425 1423 1422 1421 1420 1419 1418 1417 1416 1416 1415 1415 1414 1414 1414
1439 1439 1438 1438 1438 1438 1438 1439 1439 1439 1439 1439 1439 1439 1438 1438 1437 1437 1436 1436 1435 1433 1432 1431 1430 1428 1427 1426 1424 1423 1422 1421 1420 1419 1418 1417 1416 1415 1414 1414 1413 1413 1413 1412
1437 1437 1437 1437 1437 1437 1437 1437 1437 1438 1438 1438 1438 1437 1437 1437 1436 1435 1434 1434 1433 1432 1431 1430 1428 1427 1426 1424 1423 1421 1420 1419 1418 1417 1416 1415 1414 1413 1413 1412 1411 1411 1411 1411
1436 1435 1436 1436 1436 1436 1436 1436 1436 1436 1437 1437 1437 1436 1436 1435 1435 1434 1433 1432 1431 1430 1429 1428 1427 1425 1424 1422 1421 1420 1419 1417 1416 1415 1414 1414 1413 1412 1411 1410 1410 1410 1409 1409
1434 1434 1434 1434 1434 1434 1435 1435 1435 1435 1435 1435 1435 1435 1435 1434 1434 1433 1432 1431 1430 1428 1427 1426 1425 1424 1422 1421 1420 1419 1417 1416 1415 1414 1413 1412 1411 1410 1410 1409 1409 1408 1408 1408
1433 1433 1433 1433 1433 1433 1433 1433 1433 1434 1434 1434 1434 1434 1433 1433 1432 1431 1430 1429 1428 1427 1426 1425 1423 1422 1421 1420 1419 1418 1416 1415 1414 1413 1412 1411 1411 1410 1409 1409 1408 1408 1407 1407
1432 1432 1432 1432 1432 1432 1432 1432 1432 1432 1432 1432 1432 1432 1432 1431 1431 1430 1429 1428 1427 1426 1425 1424 1422 1421 1420 1419 1418 1417 1416 1415 1414 1413 1412 1411 1410 1409 1409 1408 1408 1407 1407 1406